Overview Statistics Trail Chart Weather Telemetry Raw packets
 

This is the latest recevied weather packets stored in our database for station/object KC9DRE. If no packets are shown the sender has not sent any weather packets the latest 10 day(s).

<< 72 73 74 75 76 77 78 >>
Time Temp. Humidity Pressure Rain* Wind** Luminosity Snow
1777408582 24.44° C 60% 1014.2 hPa 0 mm - 324 W/m² -
1777408278 24.44° C 62% 1014.6 hPa 0 mm - 363 W/m² -
1777407977 25° C 59% 1014.6 hPa 0 mm - 378 W/m² -
1777407676 25° C 59% 1014.5 hPa 0 mm - 397 W/m² -
1777407376 25° C 61% 1014.5 hPa 0 mm - 411 W/m² -
1777407070 25.56° C 60% 1014.6 hPa 0 mm - 412 W/m² -
1777406766 25.56° C 61% 1014.8 hPa 0 mm - 529 W/m² -
1777406467 25.56° C 62% 1014.8 hPa 0 mm - 596 W/m² -
1777406162 25.56° C 60% 1014.8 hPa 0 mm - 562 W/m² -
1777405857 25.56° C 55% 1015.1 hPa 0 mm - 732 W/m² -
1777405553 25° C 62% 1015.1 hPa 0 mm - 720 W/m² -
1777405251 25° C 62% 1015 hPa 0 mm - 856 W/m² -
1777404949 25° C 63% 1015 hPa 0 mm - 260 W/m² -
1777404645 25° C 62% 1015.2 hPa 0 mm - 218 W/m² -
1777404342 25° C 60% 1015 hPa 0 mm - 833 W/m² -
1777404038 25° C 62% 1015.2 hPa 0 mm - 801 W/m² -
1777403734 25.56° C 62% 1015.5 hPa 0 mm - 783 W/m² -
1777403433 25° C 63% 1015.4 hPa 0 mm - 806 W/m² -
1777403133 25° C 62% 1015.2 hPa 0 mm - 900 W/m² -
1777402829 25° C 63% 1014.9 hPa 0 mm - 387 W/m² -
1777402526 25.56° C 59% 1014.9 hPa 0 mm - 870 W/m² -
1777402223 25° C 65% 1014.9 hPa 0 mm - 893 W/m² -
1777401918 25° C 65% 1015 hPa 0 mm - 355 W/m² -
1777401616 24.44° C 64% 1014.8 hPa 0 mm - 882 W/m² -
1777401313 24.44° C 67% 1014.8 hPa 0 mm - 913 W/m² -

* Rain latest hour (hover to see other rain measurements)
** Current wind speed in m/s (hover to see current wind gust speed)